Powrót do katalogu

STARLINK-4734

AktywnyŁącznośćVLEO
NORAD 53790·PAYLOAD·🇺🇸 United States

Wystrzelony Sep 11, 2022 z Cape Canaveral Space Force Station

Loading…

Następne Przeloty (najbliższe 24 godziny)

TLE

ŚwieżeSource: CelesTrak SupGP

Epoka: Sep 15, 2026, 01:56 UTC

1 53790C 22111T   26258.08104167  .00080272  00000+0  81199-3 0  2588
2 53790  53.1569 126.6355 0001310  83.6793 286.2898 15.64609375    14

Śledź STARLINK-4734 w czasie rzeczywistym z AllMySat

Download on the App Store